Flag for Norway Weather past 2 weeks in Halden, Norway

Now
56 °F

Cool.


Feels Like: 53 °F
Forecast: 50 / 61 °F
Wind: 10 mph from East

Location: Stromtangen Fyr

Current Time: Sep 2, 2015 at 8:32:28 AM

Latest Report: Sep 2, 2015 at 7:00 AM


Visibility: N/A

Pressure: 29.60 "Hg

Humidity: 91%

Dew point: 53 °F

Location of HaldenLocation

Historic Weather in Halden — Graph

°F

Halden temperature yesterday

Maximum temperature yesterday: 60 °F (at 12:00 AM)
Minimum temperature yesterday: 56 °F (at 12:00 PM)
Average temperature yesterday: 57 °F

Past Weeks' High & Low Weather Summary

 TemperatureHumidityPressure
High74 °F (Aug 23, 3:00 PM)98% (Aug 21, 8:00 AM)30.37 "Hg (Aug 21, 8:00 AM)
Low56 °F (Aug 22, 5:00 AM)44% (Aug 23, 1:00 PM)29.53 "Hg (Aug 27, 5:00 PM)
Average63 °F77%30.01 "Hg
* Reported Aug 18 7:00 AM — Sep 2 6:00 AM, Halden, Weather by CustomWeather, © 2015

Note: Actual official high and low records may vary slightly from our data, if they occured in-between our weather recording intervals... More about our weather records

Advertising

Halden weather history for previous 24 hours

 ConditionsComfort  
Time TempWeatherWind HumidityBarometerVisibility
6:00 AM
Wed, Sep 2
56 °FCool.13 mph90%29.59 "HgN/A
4:00 AM57 °FCool.16 mph89%29.59 "HgN/A
3:00 AM57 °FCool.15 mph88%29.61 "HgN/A
2:00 AM57 °FCool.12 mph90%29.65 "HgN/A
1:00 AM57 °FCool.14 mph87%29.65 "HgN/A
12:00 AM57 °FCool.15 mph89%29.66 "HgN/A
10:00 PM
Tue, Sep 1
57 °FCool.15 mph85%29.71 "HgN/A
9:00 PM57 °FCool.16 mph86%29.71 "HgN/A
8:00 PM57 °FCool.14 mph89%29.73 "HgN/A
7:00 PM56 °FCool.10 mph91%29.75 "HgN/A
6:00 PM56 °FCool.9 mph92%29.78 "HgN/A
5:00 PM56 °FCool.10 mphN/A29.78 "HgN/A
4:00 PM57 °FCool.13 mphN/A29.78 "HgN/A
3:00 PM57 °FCool.13 mphN/A29.79 "HgN/A
2:00 PM56 °FCool.9 mph93%29.80 "HgN/A
1:00 PM56 °FCool.8 mph94%29.81 "HgN/A
12:00 PM56 °FCool.8 mph91%29.82 "HgN/A
11:00 AM56 °FCool.8 mph90%29.82 "HgN/A
10:00 AM57 °FCool.7 mph86%29.83 "HgN/A
9:00 AM57 °FCool.7 mph88%29.83 "HgN/A
8:00 AM58 °FCool.9 mph86%29.83 "HgN/A
Weather by CustomWeather, © 2015

See weather overviewHow to use our weather pages